Location: Waco, TX
(31.5480°N, 97.1670°W)
Time: 22:47:05
(UTC-06:00)

ISS - Pass Details

Date: 16 November 2018
Orbit: 402 x 408 km, 51.6° (Epoch: 17 November)

Event Time Altitude Azimuth Distance (km) Brightness Sun altitude
Rises 06:19:41 0° 297° (WNW) 2,317 - -8.4°
Reaches altitude 10° 06:22:11 10° 278° (W) 1,455 - -7.9°
Exits shadow 06:22:13 10° 278° (W) 1,445 -1.7 -7.9°
Maximum altitude 06:24:30 18° 233° (SW) 1,062 -2.0 -7.5°
Drops below altitude 10° 06:26:50 10° 187° (S) 1,451 -0.9 -7.0°
Sets 06:29:19 0° 168° (SSE) 2,308 0.5 -6.5°
